Location: Colebrook
(42.0017°N, 73.0973°W)
Time: 21:26:28
(UTC-04:00)

Amateur Radio Satellites - All Passes

Search period start: 29 May 2017 20:56
Search period end: 30 May 2017 20:56
Location: Colebrook, 42.0017°N, 73.0973°W

Satellite Date Start Highest point End Downlink Frequencies (MHz)
Time Altitude Azimuth
ISS 29 May 20:57:26 21:00:25 30° 336° (NNW) 21:03:23 437.550
AO-73 29 May 21:01:59 21:06:10 60° 260° (W) 21:10:29 145.935
EO-88 29 May 21:02:54 21:05:31 19° 68° (ENE) 21:08:09 145.990 - 145.960
SO-50 29 May 21:05:27 21:09:15 26° 113° (ESE) 21:13:03 436.795
M-CUBED/EXP-1 PRIME 29 May 21:05:39 21:08:12 21° 101° (E) 21:10:44 437.505
ZACube-1 29 May 21:18:31 21:22:24 35° 263° (W) 21:26:26 437.345
STRAND 1 29 May 21:19:25 21:23:59 33° 293° (WNW) 21:28:32 437.568
Tancredo 1 29 May 21:28:44 21:30:51 17° 347° (NNW) 21:32:57 437.200
FO-29 29 May 21:43:42 21:48:54 23° 93° (E) 21:54:27 435.910
TIGRISAT 29 May 21:47:48 21:50:14 14° 90° (E) 21:52:40 435.000
DELFI C3 29 May 21:50:14 21:54:13 78° 257° (WSW) 21:58:13 145.870
Oscar 11 29 May 22:09:08 22:11:39 15° 269° (W) 22:14:13 .
UNISAT 6 29 May 22:19:13 22:23:23 32° 96° (E) 22:27:34 437.425
ISS 29 May 22:35:36 22:37:40 15° 356° (N) 22:39:45 437.550
EO-88 29 May 22:35:50 22:39:00 28° 264° (W) 22:42:13 145.990 - 145.960
M-CUBED/EXP-1 PRIME 29 May 22:40:10 22:42:36 20° 297° (WNW) 22:45:01 437.505
SO-50 29 May 22:45:18 22:49:33 37° 310° (NW) 22:53:48 436.795
ESTCUBE 1 29 May 22:54:54 22:59:03 36° 70° (ENE) 23:03:12 437.505/2401.250
PRISM 29 May 22:57:04 23:01:09 83° 284° (WNW) 23:05:12 437.425
SPROUT 29 May 23:04:44 23:06:12 12° 62° (ENE) 23:07:39 437.525
Tancredo 1 29 May 23:05:38 23:07:29 15° 7° (N) 23:09:19 437.200
LO-87 29 May 23:06:35 23:10:07 83° 76° (ENE) 23:13:41 145.935 - 145.965
TIGRISAT 29 May 23:22:41 23:27:16 61° 286° (WNW) 23:31:53 435.000
FO-29 29 May 23:27:42 23:34:14 68° 288° (WNW) 23:41:35 435.910
VELOX 1 29 May 23:35:28 23:39:06 25° 67° (ENE) 23:42:43 145.980
EO-79 29 May 23:40:37 23:43:06 15° 92° (E) 23:45:33 145.935-145.965
50 SAT 29 May 23:54:35 23:56:48 16° 67° (ENE) 23:59:00 437.505
UNISAT 6 29 May 23:56:04 23:59:57 27° 292° (WNW) 00:03:52 437.425
DX 1 30 May 00:00:04 00:02:53 17° 64° (ENE) 00:05:43 434.975-435.025
RS-15 30 May 00:09:24 00:18:04 24° 99° (E) 00:26:52 29.354- 29.394
ISS 30 May 00:12:26 00:15:03 21° 17° (NNE) 00:17:40 437.550
AIST 2D 30 May 00:16:05 00:19:40 86° 102° (ESE) 00:23:13 435.315
YUBILEINY 30 May 00:16:38 00:24:23 38° 85° (E) 00:32:12 435.215
NANOSAT C BR1 30 May 00:22:15 00:26:15 39° 98° (E) 00:30:14 145.865
POLYITAN 1 30 May 00:30:11 00:34:23 53° 100° (E) 00:38:35 437.675
DUCHIFAT 1 30 May 00:30:53 00:34:57 43° 99° (E) 00:38:59 145.980
ESTCUBE 1 30 May 00:32:22 00:35:55 22° 266° (W) 00:39:29 437.505/2401.250
BUGSAT 1 30 May 00:35:30 00:37:52 15° 92° (E) 00:40:15 437.445
SPROUT 30 May 00:37:18 00:41:30 69° 258° (WSW) 00:45:45 437.525
QB50P2 30 May 00:39:02 00:43:19 74° 103° (ESE) 00:47:35 145.880/145.840
Tancredo 1 30 May 00:40:59 00:43:52 36° 27° (NNE) 00:46:44 437.200
VELOX 1 30 May 01:11:31 01:15:25 30° 263° (W) 01:19:20 145.980
EO-79 30 May 01:14:59 01:19:06 48° 287° (WNW) 01:23:12 145.935-145.965
FO-29 30 May 01:15:31 01:18:20 13° 304° (NW) 01:21:16 435.910
UKube-1 30 May 01:18:57 01:23:16 81° 74° (ENE) 01:27:35 .
Oscar 19 30 May 01:20:06 01:23:36 18° 92° (E) 01:27:04 437.125/150
50 SAT 30 May 01:26:24 01:29:25 28° 263° (W) 01:32:28 437.505
Gurwin Techsat 1B 30 May 01:28:11 01:30:37 13° 89° (E) 01:33:03 435.225
DX 1 30 May 01:34:31 01:38:42 46° 260° (W) 01:42:54 434.975-435.025
ITUPSAT 1 30 May 01:47:51 01:50:49 17° 62° (ENE) 01:53:46 437.325
ISS 30 May 01:48:36 01:51:55 89° 215° (SW) 01:55:11 437.550
NANOSAT C BR1 30 May 01:58:40 02:01:41 19° 294° (WNW) 02:04:43 145.865
POLYITAN 1 30 May 02:07:18 02:09:44 15° 296° (WNW) 02:12:09 437.675
DUCHIFAT 1 30 May 02:07:28 02:10:16 17° 295° (WNW) 02:13:04 145.980
BUGSAT 1 30 May 02:09:27 02:13:26 46° 288° (WNW) 02:17:28 437.445
YUBILEINY 30 May 02:12:35 02:20:55 49° 285° (WNW) 02:29:23 435.215
RS-15 30 May 02:16:39 02:28:48 88° 121° (ESE) 02:41:16 29.354- 29.394
Tancredo 1 30 May 02:16:54 02:19:30 26° 224° (SW) 02:22:06 437.200
QB50P2 30 May 02:17:14 02:18:30 11° 299° (WNW) 02:19:46 145.880/145.840
BEESAT 30 May 02:17:22 02:21:32 31° 68° (ENE) 02:25:44 436.000
AO-85 30 May 02:45:21 02:46:50 12° 110° (ESE) 02:48:19 145.980
Oscar 19 30 May 02:58:13 03:03:16 55° 288° (WNW) 03:08:15 437.125/150
MOZHAYETS 4 30 May 03:03:14 03:07:38 48° 72° (ENE) 03:12:07
AO-7 30 May 03:04:47 03:10:31 20° 91° (E) 03:16:14 .
Gurwin Techsat 1B 30 May 03:05:50 03:11:09 78° 285° (WNW) 03:16:28 435.225
PCSat 30 May 03:12:01 03:17:12 42° 53° (NE) 03:22:20 145.827
O/OREOS (USA 219) 30 May 03:17:28 03:21:56 54° 108° (ESE) 03:26:25 437.305
ITUPSAT 1 30 May 03:23:26 03:28:08 59° 259° (W) 03:32:53 437.325
ISS 30 May 03:27:23 03:27:54 10° 231° (SW) 03:28:25 437.550
KKS-1 30 May 03:30:59 03:33:29 15° 62° (ENE) 03:35:59 437.445
STARS 30 May 03:52:48 03:53:43 11° 60° (ENE) 03:54:38 437.465
BEESAT 30 May 03:55:11 03:59:16 28° 264° (W) 04:03:24 436.000
CUBESAT XI-V 30 May 03:59:37 04:03:52 34° 70° (ENE) 04:08:07 437.345
ITAMSAT 1 30 May 04:07:53 04:13:02 57° 101° (E) 04:18:10 435.822/435.867
AO-85 30 May 04:22:38 04:26:45 64° 305° (NW) 04:30:43 145.980
RS-15 30 May 04:31:58 04:43:00 37° 328° (NNW) 04:54:10 29.354- 29.394
BEESAT 2 30 May 04:37:37 04:40:44 22° 113° (ESE) 04:43:53 435.950
MOZHAYETS 4 30 May 04:42:01 04:45:03 17° 268° (W) 04:48:07
BEESAT 3 30 May 04:47:55 04:51:52 83° 126° (SE) 04:55:53 437.485
Gurwin Techsat 1B 30 May 04:48:41 04:50:12 11° 304° (WNW) 04:51:43 435.225
PCSat 30 May 04:55:47 05:00:23 29° 251° (WSW) 05:04:57 145.827
AO-7 30 May 04:55:48 05:04:13 86° 289° (WNW) 05:12:36 .
O/OREOS (USA 219) 30 May 04:58:36 05:01:41 18° 306° (NW) 05:04:47 437.305
KKS-1 30 May 05:05:13 05:09:34 56° 259° (W) 05:13:56 437.445
STARS 30 May 05:25:01 05:29:23 81° 257° (WSW) 05:33:46 437.465
SO-50 30 May 05:35:41 05:39:39 29° 47° (NE) 05:43:34 436.795
CUBESAT XI-V 30 May 05:37:25 05:41:16 25° 266° (W) 05:45:09 437.345
ITAMSAT 1 30 May 05:48:23 05:52:04 20° 298° (WNW) 05:55:43 435.822/435.867
XW-2D 30 May 05:52:42 05:53:31 11° 90° (E) 05:54:20 145.860 - 145.880
XW-2B 30 May 05:59:54 06:01:40 13° 91° (E) 06:03:25 145.730 - 145.750
XW-2F 30 May 06:09:03 06:11:28 16° 92° (E) 06:13:52 145.980 - 146.000
KAITUO 1B 30 May 06:10:22 06:12:15 13° 91° (E) 06:14:06 145.475/437.950
XW-2C 30 May 06:12:54 06:15:41 19° 93° (E) 06:18:25 145.795 - 145.815
BEESAT 2 30 May 06:14:38 06:18:18 34° 310° (NW) 06:22:01 435.950
DOVE 4 30 May 06:20:50 06:24:53 45° 99° (E) 06:29:04 437.250
BEESAT 3 30 May 06:28:02 06:30:01 13° 321° (NW) 06:32:01 437.485
CUTE-I 30 May 06:31:23 06:36:03 30° 96° (E) 06:40:42 437.470
AO-7 30 May 06:50:01 06:55:51 22° 310° (NW) 07:01:41 .
RS-15 30 May 06:51:06 07:00:35 24° 2° (N) 07:09:55 29.354- 29.394
NO-84 30 May 06:52:55 06:56:40 28° 128° (SE) 07:00:25 435.350 FM
LilacSat-2 30 May 06:54:45 06:58:37 64° 101° (ESE) 07:02:26 437.200
STRAND 1 30 May 06:56:24 07:01:14 46° 70° (ENE) 07:06:07 437.568
SO-50 30 May 07:16:01 07:20:08 35° 244° (WSW) 07:24:16 436.795
XW-2D 30 May 07:24:16 07:28:02 54° 286° (WNW) 07:31:46 145.860 - 145.880
SEEDS 30 May 07:24:23 07:25:47 11° 89° (E) 07:27:10 437.485
NUDT-PHONESAT 30 May 07:28:30 07:32:16 65° 284° (WNW) 07:35:58 437.300
XW-2B 30 May 07:32:24 07:36:06 45° 287° (WNW) 07:39:45 145.730 - 145.750
XW-2F 30 May 07:42:12 07:45:44 35° 288° (WNW) 07:49:13 145.980 - 146.000
KAITUO 1B 30 May 07:42:52 07:46:28 42° 287° (WNW) 07:50:01 145.475/437.950
XW-2C 30 May 07:46:30 07:49:55 30° 289° (WNW) 07:53:18 145.795 - 145.815
M-CUBED/EXP-1 PRIME 30 May 07:51:03 07:54:49 36° 67° (ENE) 07:58:19 437.505
DOVE 4 30 May 07:59:41 08:02:16 16° 295° (WNW) 08:04:53 437.250
CUBEBUG 2 30 May 08:00:07 08:03:57 25° 94° (E) 08:07:50 437.445
UWE-3 30 May 08:02:41 08:05:36 16° 91° (E) 08:08:31 435.000/436.395/437.385
HO-68 30 May 08:04:40 08:11:43 54° 101° (E) 08:18:42 435.675
AAUSAT CUBESAT 2 30 May 08:10:39 08:13:30 18° 92° (E) 08:16:19 437.432
CUTE-I 30 May 08:11:16 08:16:06 36° 292° (WNW) 08:20:57 437.470
CUTE 1.7 + AOD 2 30 May 08:16:11 08:20:27 72° 101° (E) 08:24:40 437.475
XW-2A 30 May 08:28:42 08:32:10 85° 283° (WNW) 08:35:36 145.665 - 145.685
NO-84 30 May 08:29:53 08:34:09 49° 325° (NW) 08:38:19 435.350 FM
LilacSat-2 30 May 08:31:39 08:32:19 10° 297° (WNW) 08:33:01 437.200
STRAND 1 30 May 08:36:47 08:40:38 21° 267° (W) 08:44:30 437.568
TIGRISAT 30 May 08:47:51 08:49:40 12° 61° (ENE) 08:51:30 435.000
AO-73 30 May 08:49:37 08:53:27 26° 94° (E) 08:57:15 145.935
SEEDS 30 May 08:57:42 09:01:51 60° 286° (WNW) 09:05:58 437.485
ZACube-1 30 May 09:05:43 09:10:04 42° 98° (E) 09:14:25 437.345
RS-15 30 May 09:06:26 09:17:49 40° 36° (NE) 09:28:44 29.354- 29.394
UNISAT 6 30 May 09:18:39 09:22:18 28° 68° (ENE) 09:26:02 437.425
M-CUBED/EXP-1 PRIME 30 May 09:26:25 09:29:17 18° 260° (W) 09:32:02 437.505
DELFI C3 30 May 09:28:35 09:30:16 12° 91° (E) 09:31:58 145.870
CUBEBUG 2 30 May 09:36:24 09:40:34 34° 290° (WNW) 09:44:49 437.445
UWE-3 30 May 09:37:49 09:42:18 52° 287° (WNW) 09:46:50 435.000/436.395/437.385
FO-29 30 May 09:41:26 09:46:26 53° 71° (ENE) 09:51:44 435.910
AAUSAT CUBESAT 2 30 May 09:45:16 09:49:05 37° 289° (WNW) 09:52:52 437.432
PRISM 30 May 09:46:09 09:50:15 72° 75° (ENE) 09:54:22 437.425
HO-68 30 May 09:52:56 09:59:05 32° 299° (WNW) 10:05:13 435.675
Oscar 11 30 May 09:53:36 09:57:58 84° 286° (WNW) 10:02:19 .
CUTE 1.7 + AOD 2 30 May 09:54:23 09:55:40 11° 298° (WNW) 09:56:57 437.475
EO-88 30 May 10:04:07 10:07:04 22° 95° (E) 10:09:58 145.990 - 145.960
NO-84 30 May 10:09:41 10:12:34 17° 344° (NNW) 10:15:22 435.350 FM
TIGRISAT 30 May 10:21:30 10:25:45 66° 259° (W) 10:30:07 435.000
AO-73 30 May 10:25:37 10:29:40 32° 290° (WNW) 10:33:42 145.935
YUBILEINY 30 May 10:26:26 10:32:21 19° 61° (ENE) 10:38:14 435.215
EO-79 30 May 10:34:21 10:36:07 12° 62° (ENE) 10:37:54 145.935-145.965
ZACube-1 30 May 10:42:40 10:46:03 21° 294° (WNW) 10:49:25 437.345
AIST 2D 30 May 10:50:45 10:53:52 30° 72° (ENE) 10:57:02 435.315
UNISAT 6 30 May 10:55:20 10:58:57 26° 265° (W) 11:02:40 437.425
DELFI C3 30 May 11:01:32 11:05:20 48° 287° (WNW) 11:09:05 145.870
AO-85 30 May 11:13:50 11:16:09 15° 41° (NE) 11:18:31 145.980
NANOSAT C BR1 30 May 11:14:40 11:18:18 30° 69° (ENE) 11:21:58 145.865
RS-15 30 May 11:19:20 11:31:30 76° 242° (WSW) 11:43:00 29.354- 29.394
POLYITAN 1 30 May 11:22:54 11:26:49 40° 71° (ENE) 11:30:47 437.675
DUCHIFAT 1 30 May 11:22:56 11:26:40 33° 70° (ENE) 11:30:25 145.980
BUGSAT 1 30 May 11:27:04 11:28:13 11° 62° (ENE) 11:29:21 437.445
FO-29 30 May 11:28:34 11:32:02 18° 270° (W) 11:35:35 435.910
QB50P2 30 May 11:31:37 11:35:43 56° 73° (ENE) 11:39:52 145.880/145.840
EO-88 30 May 11:37:40 11:40:39 24° 291° (WNW) 11:43:38 145.990 - 145.960
O/OREOS (USA 219) 30 May 11:49:22 11:51:38 13° 51° (NE) 11:53:52 437.305
NO-84 30 May 11:49:24 11:51:33 14° 5° (N) 11:53:38 435.350 FM
LO-87 30 May 12:06:18 12:09:52 82° 284° (WNW) 12:13:27 145.935 - 145.965
EO-79 30 May 12:07:12 12:11:20 62° 259° (WSW) 12:15:32 145.935-145.965
YUBILEINY 30 May 12:21:38 12:30:32 87° 85° (E) 12:39:23 435.215
ESTCUBE 1 30 May 12:23:04 12:27:36 75° 103° (ESE) 12:32:03 437.505/2401.250
SPROUT 30 May 12:23:16 12:26:19 19° 93° (E) 12:29:23 437.525
AIST 2D 30 May 12:24:57 12:27:09 16° 267° (W) 12:29:23 435.315
Oscar 19 30 May 12:36:56 12:41:21 29° 66° (ENE) 12:45:47 437.125/150
Gurwin Techsat 1B 30 May 12:48:56 12:53:04 24° 64° (ENE) 12:57:12 435.225
50 SAT 30 May 12:49:27 12:51:25 15° 93° (E) 12:53:23 437.505
NANOSAT C BR1 30 May 12:50:41 12:54:01 23° 265° (W) 12:57:22 145.865
AO-85 30 May 12:52:54 12:56:56 71° 239° (WSW) 13:01:12 145.980
BEESAT 2 30 May 12:54:30 12:57:27 19° 44° (NE) 13:00:23 435.950
BUGSAT 1 30 May 12:59:03 13:03:00 65° 258° (WSW) 13:07:01 437.445
DUCHIFAT 1 30 May 12:59:14 13:02:23 21° 266° (W) 13:05:33 145.980
POLYITAN 1 30 May 13:00:01 13:02:46 17° 268° (W) 13:05:34 437.675
VELOX 1 30 May 13:00:24 13:04:37 46° 99° (E) 13:08:50 145.980
BEESAT 3 30 May 13:04:20 13:08:17 52° 54° (NE) 13:12:10 437.485
UKube-1 30 May 13:07:22 13:09:14 13° 91° (E) 13:11:06 .
QB50P2 30 May 13:10:03 13:11:52 12° 270° (W) 13:13:41 145.880/145.840
DX 1 30 May 13:22:21 13:26:04 27° 96° (E) 13:29:45 434.975-435.025
NO-84 30 May 13:26:49 13:30:18 27° 27° (NNE) 13:33:30 435.350 FM
O/OREOS (USA 219) 30 May 13:27:05 13:31:35 73° 250° (WSW) 13:36:03 437.305
RS-15 30 May 13:34:43 13:41:40 18° 264° (W) 13:48:29 29.354- 29.394
ITAMSAT 1 30 May 13:50:33 13:52:41 13° 58° (ENE) 13:54:50 435.822/435.867
SPROUT 30 May 13:58:23 14:02:21 37° 289° (WNW) 14:06:18 437.525
ESTCUBE 1 30 May 14:02:02 14:03:46 12° 299° (WNW) 14:05:28 437.505/2401.250
AO-7 30 May 14:04:05 14:11:04 32° 56° (ENE) 14:18:05 .
Oscar 19 30 May 14:15:45 14:20:31 36° 263° (W) 14:25:19 437.125/150
YUBILEINY 30 May 14:20:23 14:26:06 19° 283° (WNW) 14:31:49 435.215
50 SAT 30 May 14:21:21 14:24:21 29° 289° (WNW) 14:27:19 437.505
Gurwin Techsat 1B 30 May 14:27:35 14:32:40 47° 261° (W) 14:37:49 435.225
BEESAT 2 30 May 14:31:32 14:35:29 50° 242° (WSW) 14:39:21 435.950
VELOX 1 30 May 14:37:49 14:40:43 18° 296° (WNW) 14:43:36 145.980
UKube-1 30 May 14:41:23 14:45:36 58° 287° (WNW) 14:49:49 .
BEESAT 3 30 May 14:43:16 14:45:25 14° 250° (WSW) 14:47:33 437.485
DX 1 30 May 14:58:31 15:02:10 27° 293° (WNW) 15:05:49 434.975-435.025
MOZHAYETS 4 30 May 15:00:20 15:01:30 11° 88° (E) 15:02:40
NO-84 30 May 15:04:20 15:08:03 48° 227° (SW) 15:11:25 435.350 FM
ITUPSAT 1 30 May 15:23:35 15:27:57 33° 97° (E) 15:32:17 437.325
ITAMSAT 1 30 May 15:26:12 15:31:22 90° 62° (ENE) 15:36:35 435.822/435.867
BEESAT 30 May 15:53:50 15:58:38 69° 102° (ESE) 16:03:24 436.000
AO-7 30 May 15:55:07 16:03:18 64° 256° (WSW) 16:11:34 .
MOZHAYETS 4 30 May 16:34:32 16:39:11 76° 285° (WNW) 16:43:48
KKS-1 30 May 16:55:58 16:59:40 25° 96° (E) 17:03:22 437.445
XW-2C 30 May 16:56:32 16:57:24 11° 63° (ENE) 16:58:16 145.795 - 145.815
ITUPSAT 1 30 May 17:01:35 17:05:38 27° 294° (WNW) 17:09:40 437.325
ITAMSAT 1 30 May 17:10:35 17:11:31 10° 272° (W) 17:12:28 435.822/435.867
STARS 30 May 17:14:51 17:17:47 17° 93° (E) 17:20:43 437.465
DOVE 4 30 May 17:26:33 17:30:52 49° 73° (ENE) 17:35:00 437.250
CUBESAT XI-V 30 May 17:32:23 17:37:03 80° 103° (ESE) 17:41:40 437.345
BEESAT 30 May 17:33:17 17:35:49 14° 299° (WNW) 17:38:23 436.000
LilacSat-2 30 May 17:36:52 17:40:19 32° 71° (ENE) 17:43:48 437.200
CUTE-I 30 May 17:53:26 17:58:32 51° 70° (ENE) 18:03:40 437.470
PCSat 30 May 17:54:15 17:59:05 34° 110° (ESE) 18:03:58 145.827
AO-7 30 May 17:56:13 17:57:38 10° 275° (W) 17:59:03 .
XW-2D 30 May 18:05:15 18:09:03 71° 76° (ENE) 18:12:54 145.860 - 145.880
NUDT-PHONESAT 30 May 18:07:40 18:11:18 55° 75° (ENE) 18:15:00 437.300
XW-2B 30 May 18:13:19 18:17:08 87° 76° (ENE) 18:21:00 145.730 - 145.750
KAITUO 1B 30 May 18:22:28 18:26:14 88° 81° (E) 18:30:04 145.475/437.950
XW-2F 30 May 18:22:37 18:26:25 74° 258° (WSW) 18:30:16 145.980 - 146.000
XW-2C 30 May 18:27:17 18:31:02 61° 259° (W) 18:34:52 145.795 - 145.815
ISS 30 May 18:29:18 18:31:56 22° 134° (SE) 18:34:34 437.550
KKS-1 30 May 18:32:19 18:36:13 30° 292° (WNW) 18:40:06 437.445
HO-68 30 May 18:33:37 18:40:14 42° 64° (ENE) 18:46:53 435.675
Tancredo 1 30 May 18:48:31 18:51:31 55° 141° (SE) 18:54:33 437.200
STARS 30 May 18:50:08 18:54:19 44° 289° (WNW) 18:58:29 437.465
CUBEBUG 2 30 May 18:59:12 19:02:16 20° 66° (ENE) 19:05:24 437.445
XW-2A 30 May 19:00:22 19:03:20 30° 72° (ENE) 19:06:21 145.665 - 145.685
UWE-3 30 May 19:01:07 19:03:07 13° 62° (ENE) 19:05:07 435.000/436.395/437.385
AAUSAT CUBESAT 2 30 May 19:01:55 19:04:02 14° 64° (ENE) 19:06:08 437.432
DOVE 4 30 May 19:06:12 19:08:47 15° 268° (W) 19:11:19 437.250
STRAND 1 30 May 19:07:44 19:10:41 15° 90° (E) 19:13:36 437.568
CUTE 1.7 + AOD 2 30 May 19:08:43 19:12:52 51° 73° (ENE) 19:17:03 437.475
LilacSat-2 30 May 19:12:01 19:14:40 18° 267° (W) 19:17:22 437.200
CUBESAT XI-V 30 May 19:12:05 19:13:44 12° 300° (WNW) 19:15:23 437.345
CUTE-I 30 May 19:34:56 19:38:51 21° 267° (W) 19:42:48 437.470
PCSat 30 May 19:37:27 19:42:26 36° 309° (NW) 19:47:27 145.827
AO-73 30 May 19:45:51 19:49:00 20° 66° (ENE) 19:52:13 145.935
SEEDS 30 May 19:49:00 19:53:16 87° 262° (W) 19:57:32 437.485
ZACube-1 30 May 20:01:52 20:05:40 32° 70° (ENE) 20:09:34 437.345
ISS 30 May 20:05:02 20:08:15 46° 331° (NNW) 20:11:27 437.550
HO-68 30 May 20:21:19 20:27:56 40° 262° (W) 20:34:38 435.675
Tancredo 1 30 May 20:24:52 20:27:26 24° 339° (NNW) 20:30:01 437.200
XW-2A 30 May 20:34:18 20:36:11 14° 267° (W) 20:38:03 145.665 - 145.685
CUBEBUG 2 30 May 20:34:47 20:38:38 36° 263° (W) 20:42:36 437.445
UWE-3 30 May 20:34:51 20:39:01 61° 260° (W) 20:43:19 435.000/436.395/437.385
AAUSAT CUBESAT 2 30 May 20:34:55 20:39:02 55° 260° (W) 20:43:09 437.432
EO-88 30 May 20:44:00 20:45:11 11° 64° (ENE) 20:46:21 145.990 - 145.960
STRAND 1 30 May 20:45:11 20:50:18 66° 287° (WNW) 20:55:24 437.568
CUTE 1.7 + AOD 2 30 May 20:46:44 20:49:00 14° 269° (W) 20:51:17 437.475
